Wind_Speed
36 36 35 34 33 33 33 31 32 31 31 30 30 30 30 29 28 28 28 28 28 28 28 28 29 29 30 30 31 31 31 32 31 31 31 32 31 32 32 32 33 33 33
37 37 37 36 35 34 34 33 33 33 32 32 31 30 30 30 29 30 30 30 30 30 30 30 30 30 31 31 32 32 33 33 32 32 32 32 32 33 33 33 33 33 33
39 39 38 38 37 35 33 33 33 34 34 33 33 32 32 31 31 31 31 31 31 31 31 31 31 31 32 32 33 33 33 33 33 33 34 33 33 33 33 33 33 33 33
39 39 39 39 38 37 35 32 32 33 33 33 33 32 32 31 31 32 32 32 32 32 32 32 33 33 33 34 34 34 34 34 34 35 34 34 33 33 33 32 32 33 33
40 39 39 39 39 38 37 36 34 33 33 34 34 34 33 32 32 33 33 33 33 33 33 33 34 34 34 35 34 34 34 35 35 34 34 34 33 33 33 33 33 33 33
40 40 40 39 38 38 37 38 36 35 35 35 35 35 34 33 34 34 34 33 33 34 34 34 34 34 34 34 34 34 35 35 34 34 34 34 34 34 34 34 33 33 34
39 39 40 39 39 39 38 38 37 36 36 36 36 36 35 34 34 35 36 35 35 35 34 34 34 34 34 34 34 35 35 35 35 35 35 35 35 34 35 35 34 34 34
38 39 40 40 40 39 39 39 39 38 37 36 37 37 37 36 36 35 36 37 36 35 35 34 34 34 33 34 35 35 36 36 35 35 35 35 35 35 35 35 35 35 36
38 38 39 39 39 39 40 40 40 39 38 38 38 38 39 39 37 35 36 37 36 36 35 35 35 34 34 34 35 35 36 36 36 36 36 36 35 36 36 36 36 37 37
38 39 39 39 39 40 40 40 41 40 39 38 38 39 39 39 39 37 37 37 36 35 35 35 35 35 35 35 35 35 35 36 37 37 37 37 37 37 36 37 37 37 37
37 39 39 39 40 41 40 40 41 41 40 39 38 38 39 38 38 38 37 36 35 35 35 35 35 35 35 35 35 35 36 37 37 38 38 38 38 37 37 37 37 37 37
37 38 40 38 38 40 40 40 40 40 40 40 39 38 38 39 38 38 38 37 36 36 36 35 34 34 35 35 35 35 36 37 37 38 38 39 38 37 36 36 36 36 36
37 38 38 39 39 39 39 40 40 40 41 40 39 39 38 38 38 38 38 37 37 37 36 35 35 36 36 36 36 36 37 37 37 37 38 38 38 37 36 35 36 36 35
36 37 39 40 41 41 40 40 41 41 42 41 41 40 39 39 39 39 38 38 38 38 37 36 35 36 36 36 37 37 38 38 37 37 37 37 37 37 36 36 35 35 35
36 37 39 40 41 40 40 40 40 41 42 42 41 40 40 39 39 39 39 39 38 37 36 36 35 35 36 36 36 37 38 38 37 37 36 35 35 36 35 35 35 35 35
36 36 37 38 40 41 40 41 41 41 40 40 39 40 40 40 40 39 39 39 38 38 38 37 36 36 36 36 36 36 36 37 36 36 36 35 35 35 35 35 35 35 35
34 35 36 36 37 39 40 40 40 40 40 39 38 38 38 39 39 39 38 38 38 38 38 37 37 37 36 35 35 35 36 36 35 36 35 35 35 34 35 34 34 33 33
32 32 33 34 36 37 38 39 38 38 38 38 37 37 38 38 39 38 38 37 37 37 37 36 37 37 36 35 35 35 35 35 35 35 35 35 34 33 34 33 32 32 32
32 32 33 33 35 36 37 38 38 37 37 37 37 36 37 37 37 36 36 37 37 37 37 36 36 36 36 35 35 35 35 34 34 35 35 34 33 33 33 33 33 32 31
31 32 32 33 34 35 36 37 37 37 36 36 37 37 37 36 36 36 36 37 37 38 37 36 35 34 36 36 36 35 34 34 34 34 34 34 33 33 33 33 32 32 31
31 31 32 33 34 34 34 36 36 35 36 35 36 37 37 36 36 36 36 35 36 36 36 36 35 35 34 35 35 35 34 34 34 33 33 33 33 32 32 32 32 31 30
29 30 31 32 32 32 32 33 34 34 35 34 34 34 35 35 35 34 34 34 35 35 35 36 36 36 35 35 35 35 35 35 34 34 33 33 33 32 31 31 31 31 30
28 28 29 30 30 31 31 32 32 33 33 33 33 33 33 33 33 33 33 34 34 34 34 35 35 35 35 35 35 35 35 34 33 33 33 33 33 32 32 31 31 30 28
28 29 29 29 29 29 29 30 31 31 31 33 34 34 34 35 35 34 35 34 34 34 34 35 35 34 34 34 34 34 33 32 32 32 32 31 31 31 31 30 29 28 27
27 28 29 29 29 29 29 30 30 31 32 33 34 35 35 35 35 34 34 35 35 35 35 34 35 34 34 34 34 33 32 31 31 31 31 30 30 30 30 29 28 27 26
27 27 28 29 30 30 30 30 31 32 33 33 34 35 36 35 35 34 34 35 36 36 35 33 33 33 34 34 34 33 32 31 31 31 30 30 30 29 28 27 26 25 24
Wind_Direction
245 247 249 251 251 252 252 254 255 256 258 260 262 264 266 268 271 274 277 279 282 285 288 290 293 295 295 297 298 298 299 299 299 298 299 299 299 299 297 297 297 296 295
245 246 248 251 252 253 254 254 256 257 258 260 261 263 265 267 270 273 276 279 281 284 286 289 292 294 295 296 298 298 298 298 298 298 299 299 299 298 297 297 297 296 296
244 245 247 250 252 254 256 257 257 258 258 259 261 262 264 266 269 272 275 278 280 283 285 288 290 292 294 296 297 298 298 298 298 298 297 297 298 298 298 297 297 297 296
243 244 246 248 251 252 253 255 257 259 260 260 261 263 265 267 269 272 275 278 280 282 284 286 289 291 293 294 295 297 298 298 297 297 297 296 297 297 297 297 297 297 297
243 243 245 247 249 251 253 255 258 261 262 261 262 262 264 267 269 272 275 277 279 280 282 284 287 290 291 292 294 295 296 298 298 298 297 296 296 296 297 297 297 297 297
246 245 247 248 249 252 253 255 259 261 263 263 263 263 264 266 269 272 274 277 279 280 281 283 286 289 290 291 292 294 296 297 297 297 297 296 295 295 296 297 297 297 297
248 247 250 251 253 255 256 258 260 262 265 265 264 264 265 268 270 273 274 276 278 279 280 281 285 288 289 290 291 294 296 296 296 296 296 296 295 295 296 297 297 298 298
248 249 250 252 255 256 258 261 263 264 265 267 267 265 266 268 270 272 274 275 276 277 278 281 284 286 288 290 292 294 295 296 296 296 296 295 294 294 295 296 297 297 297
248 250 250 251 253 254 257 259 262 263 265 268 269 267 267 268 268 271 273 275 275 276 278 281 283 284 287 290 292 293 294 295 295 295 294 294 293 294 294 295 296 296 296
249 250 252 252 252 255 257 259 261 262 264 268 270 270 270 271 271 271 272 273 274 277 279 281 282 283 286 289 291 293 294 295 295 294 294 293 293 293 294 294 295 296 296
249 250 252 253 253 254 256 259 261 262 264 265 268 270 270 270 272 273 273 274 274 276 279 281 281 284 286 288 290 291 292 293 294 294 294 293 293 294 294 294 295 296 296
250 251 252 254 255 255 257 258 260 261 263 264 266 269 270 269 270 273 274 273 274 276 279 280 281 283 286 288 289 291 293 294 294 294 293 293 293 294 293 294 295 296 295
252 253 252 253 255 256 256 257 259 260 262 264 266 267 269 269 270 272 273 273 274 275 276 278 280 282 284 286 288 291 294 295 295 295 294 294 294 294 294 295 295 295 296
254 253 253 253 255 256 256 257 259 260 261 262 265 268 269 269 269 270 272 273 275 275 275 277 279 281 284 286 288 290 293 293 295 295 295 295 295 294 294 295 296 296 296
257 256 256 253 254 255 257 258 259 260 261 262 264 266 267 268 269 270 272 273 275 276 276 277 279 281 284 285 287 289 292 293 293 294 296 297 295 295 295 295 295 296 297
258 258 258 257 257 257 258 258 261 261 261 261 263 264 266 267 268 270 272 273 274 274 276 277 279 281 283 285 287 288 290 292 293 295 296 296 296 296 296 296 296 296 296
262 261 259 258 257 257 257 258 259 261 261 261 262 265 266 267 268 270 271 272 273 274 275 276 278 280 283 285 286 287 289 291 293 295 296 296 296 297 298 298 299 297 295
266 265 265 262 259 258 258 258 259 260 259 260 262 264 266 267 268 270 271 271 272 273 274 275 276 278 280 284 285 287 289 290 292 294 295 295 295 297 298 298 299 298 295
266 264 266 265 265 262 261 259 260 259 259 260 262 264 266 266 268 269 270 271 271 272 273 275 276 277 279 282 284 287 289 290 292 293 294 295 295 296 298 297 298 296 295
266 266 267 267 267 266 263 262 262 261 261 261 261 263 266 267 268 269 270 271 271 271 271 273 276 277 278 280 283 285 287 289 292 293 293 294 295 297 297 296 296 295 294
267 267 268 268 268 269 267 264 263 262 261 261 262 264 265 267 268 269 270 271 271 271 270 272 274 276 278 279 282 283 285 287 290 292 293 294 296 297 296 296 295 294 294
267 267 268 269 269 269 268 266 263 262 262 262 262 263 264 266 268 268 269 269 270 272 273 274 275 276 278 280 281 283 285 286 287 289 290 292 294 296 296 296 296 294 292
268 269 269 270 269 269 268 267 266 264 262 262 263 263 263 265 268 269 270 269 271 273 274 275 276 276 278 280 281 283 284 285 286 287 289 291 293 295 295 295 295 294 292
268 268 269 271 271 271 271 269 267 265 264 264 263 263 263 264 267 271 270 269 271 273 275 276 276 276 277 278 279 280 282 284 285 287 289 290 292 293 295 294 294 293 292
269 270 269 271 272 272 272 270 268 267 267 264 263 264 264 265 267 269 269 269 271 272 274 275 276 276 276 277 279 280 281 282 284 286 288 289 291 292 294 293 292 291 289
273 274 273 273 274 273 271 269 268 268 268 266 264 264 264 266 268 268 269 270 271 272 272 273 275 276 276 276 277 279 281 282 283 284 286 287 288 290 291 291 289 288 288
Height
5807 5809 5812 5813 5814 5816 5817 5817 5818 5819 5819 5820 5820 5821 5821 5821 5821 5820 5819 5818 5817 5816 5814 5812 5810 5808 5805 5803 5800 5798 5795 5792 5788 5785 5782 5779 5776 5773 5770 5767 5764 5761 5759
5799 5802 5804 5806 5807 5809 5810 5811 5811 5812 5812 5813 5814 5814 5814 5814 5814 5814 5813 5812 5811 5809 5808 5806 5804 5801 5799 5796 5793 5791 5788 5784 5781 5778 5774 5771 5768 5765 5762 5759 5756 5754 5751
5791 5793 5796 5798 5800 5801 5803 5803 5804 5805 5805 5806 5806 5807 5807 5807 5807 5807 5806 5805 5804 5802 5801 5799 5797 5794 5792 5789 5786 5783 5780 5777 5773 5770 5767 5763 5760 5757 5754 5751 5748 5746 5743
5783 5785 5787 5790 5792 5793 5795 5796 5797 5798 5798 5799 5799 5800 5800 5800 5800 5799 5799 5798 5796 5795 5793 5791 5789 5787 5784 5782 5779 5776 5773 5769 5766 5762 5759 5755 5752 5750 5747 5744 5741 5738 5735
5773 5776 5779 5781 5784 5785 5787 5788 5790 5790 5791 5791 5792 5792 5792 5792 5792 5792 5791 5790 5788 5787 5786 5784 5782 5779 5777 5774 5771 5768 5765 5762 5758 5755 5751 5748 5745 5742 5739 5736 5733 5730 5727
5764 5768 5771 5773 5775 5777 5778 5780 5781 5782 5783 5784 5784 5784 5784 5784 5784 5783 5783 5782 5780 5779 5777 5776 5774 5771 5769 5766 5763 5760 5757 5754 5750 5747 5744 5740 5737 5734 5731 5728 5725 5722 5719
5756 5759 5762 5764 5766 5769 5770 5772 5773 5774 5775 5775 5776 5776 5776 5776 5775 5775 5774 5773 5772 5771 5769 5767 5766 5763 5761 5758 5755 5752 5749 5746 5743 5739 5736 5733 5729 5726 5723 5720 5717 5714 5710
5747 5750 5753 5755 5757 5760 5762 5763 5764 5765 5766 5767 5767 5768 5768 5769 5767 5767 5766 5764 5763 5762 5761 5759 5757 5755 5753 5751 5748 5744 5741 5738 5735 5731 5728 5725 5722 5719 5715 5712 5709 5705 5702
5739 5741 5744 5746 5748 5751 5753 5755 5756 5757 5758 5758 5758 5759 5759 5759 5760 5759 5757 5756 5754 5753 5752 5751 5749 5747 5745 5742 5740 5737 5733 5730 5726 5723 5720 5716 5713 5710 5707 5703 5700 5696 5693
5729 5733 5734 5736 5739 5742 5744 5745 5746 5748 5749 5749 5749 5749 5749 5749 5749 5750 5749 5748 5746 5745 5744 5742 5741 5739 5737 5734 5731 5728 5725 5722 5718 5714 5711 5708 5705 5701 5698 5694 5691 5687 5684
5721 5724 5726 5727 5729 5732 5734 5735 5736 5738 5739 5740 5740 5739 5739 5739 5739 5739 5739 5739 5737 5736 5735 5734 5732 5730 5728 5726 5723 5720 5717 5713 5709 5706 5702 5699 5696 5692 5689 5685 5682 5678 5674
5713 5715 5716 5718 5720 5722 5724 5725 5727 5728 5729 5730 5730 5730 5730 5730 5730 5730 5729 5729 5728 5728 5726 5725 5723 5722 5720 5717 5715 5711 5708 5704 5700 5697 5693 5690 5687 5683 5680 5676 5673 5669 5665
5704 5705 5707 5709 5710 5712 5714 5715 5717 5718 5719 5720 5721 5721 5721 5721 5720 5720 5720 5720 5719 5719 5718 5716 5715 5713 5711 5709 5706 5703 5699 5696 5692 5687 5684 5680 5677 5674 5670 5667 5663 5660 5656
5695 5696 5698 5699 5700 5702 5704 5705 5706 5708 5709 5710 5711 5711 5711 5711 5711 5711 5710 5710 5710 5710 5709 5708 5706 5704 5702 5699 5697 5694 5691 5687 5683 5678 5674 5671 5668 5665 5661 5658 5655 5651 5648
5685 5686 5688 5689 5690 5691 5693 5694 5696 5697 5699 5700 5700 5701 5701 5701 5701 5701 5701 5700 5700 5700 5700 5699 5698 5695 5693 5691 5688 5685 5682 5678 5674 5670 5666 5662 5659 5656 5652 5649 5646 5643 5640
5675 5676 5678 5679 5680 5681 5683 5684 5686 5687 5688 5689 5690 5691 5691 5691 5691 5691 5691 5691 5690 5690 5690 5690 5688 5686 5684 5682 5679 5676 5673 5669 5666 5662 5658 5655 5651 5648 5644 5641 5637 5634 5631
5666 5667 5668 5669 5670 5671 5672 5674 5675 5676 5678 5679 5680 5680 5681 5681 5681 5681 5681 5681 5680 5680 5680 5680 5678 5677 5675 5673 5670 5667 5664 5661 5657 5653 5650 5647 5643 5640 5636 5633 5629 5626 5622
5657 5657 5658 5659 5660 5661 5661 5663 5664 5665 5667 5668 5669 5670 5671 5671 5671 5671 5671 5671 5671 5670 5670 5670 5669 5668 5666 5664 5661 5658 5655 5652 5649 5645 5642 5639 5635 5632 5628 5625 5621 5617 5614
5648 5648 5649 5649 5650 5651 5652 5652 5653 5655 5657 5658 5659 5660 5660 5661 5661 5661 5661 5661 5660 5660 5660 5659 5659 5658 5657 5655 5652 5650 5647 5644 5640 5637 5634 5630 5627 5624 5620 5617 5613 5609 5606
5640 5640 5640 5641 5641 5641 5642 5642 5643 5645 5646 5648 5649 5650 5650 5651 5651 5651 5651 5651 5650 5650 5650 5649 5649 5648 5647 5645 5643 5641 5638 5635 5632 5629 5626 5622 5619 5615 5612 5608 5605 5602 5598
5632 5632 5632 5632 5632 5632 5632 5633 5634 5635 5636 5637 5638 5639 5640 5641 5641 5641 5641 5641 5641 5640 5640 5639 5639 5638 5637 5636 5634 5632 5630 5627 5624 5621 5618 5614 5611 5608 5604 5600 5596 5593 5590
5624 5623 5623 5623 5623 5623 5623 5624 5624 5625 5626 5627 5628 5629 5630 5631 5631 5631 5631 5631 5631 5630 5630 5629 5629 5628 5627 5626 5624 5622 5620 5618 5616 5614 5610 5607 5603 5599 5596 5592 5589 5585 5582
5615 5615 5615 5615 5615 5615 5614 5615 5615 5615 5616 5618 5619 5620 5621 5622 5622 5622 5621 5621 5620 5620 5620 5619 5619 5618 5617 5616 5615 5613 5611 5608 5606 5604 5601 5598 5595 5591 5588 5584 5581 5578 5575
5607 5607 5607 5607 5606 5606 5606 5606 5606 5606 5607 5608 5609 5610 5611 5611 5612 5612 5612 5611 5611 5610 5610 5609 5609 5608 5607 5605 5604 5603 5601 5599 5597 5594 5592 5590 5587 5583 5579 5576 5573 5570 5567
5599 5598 5598 5598 5598 5598 5597 5597 5597 5597 5598 5599 5599 5600 5600 5601 5601 5602 5601 5601 5601 5601 5600 5599 5598 5597 5596 5595 5594 5592 5591 5590 5588 5586 5584 5581 5579 5576 5572 5568 5566 5563 5560
5591 5590 5589 5589 5589 5588 5588 5588 5588 5589 5589 5589 5590 5590 5590 5591 5591 5591 5591 5591 5591 5590 5590 5589 5588 5587 5586 5585 5584 5582 5581 5580 5578 5577 5575 5572 5570 5567 5565 5562 5559 5556 5554